period_start,C,m1,H,J0,J1,J2,J3,J4,J5,JA,JB,JC,JD,JJ,JK,JN,#
2013-12-08 00:00:45,0.20,8.10,0.00,26.68,27.64,30.70,5.94,31.67,1020.43,2036.20,1395.07,1796.82,1966.02,349.94,320.59,31.82,0000 0000 0000 0000 000000
2013-12-08 00:01:45,0.23,8.10,0.00,26.69,27.64,30.66,5.80,31.63,1020.38,2036.24,1394.99,1796.41,1965.95,348.71,319.98,31.83,0000 0000 0000 0000 000000
2013-12-08 00:02:45,0.34,8.10,0.00,26.66,27.64,30.63,5.92,31.58,1020.40,2036.32,1394.76,1796.15,1965.57,350.08,321.50,31.84,0000 0000 0000 0000 000000
2013-12-08 00:03:45,0.49,8.11,0.00,26.65,27.63,30.60,5.86,31.63,1020.42,2036.32,1394.33,1796.05,1965.22,350.49,321.67,31.84,0000 0000 0000 0000 000000
2013-12-08 00:04:45,0.37,8.11,0.00,26.65,27.63,30.58,5.87,31.38,1020.41,2036.19,1394.12,1796.00,1965.08,350.56,321.73,31.85,0000 0000 0000 0000 000000
2013-12-08 00:05:46,0.07,8.11,0.00,26.69,27.63,30.60,5.83,31.38,1020.37,2036.16,1394.04,1795.88,1964.98,349.57,321.03,31.85,0000 0000 0000 0000 000000
2013-12-08 00:06:46,0.11,8.11,0.00,26.69,27.63,30.60,6.10,31.58,1020.37,2036.14,1393.95,1795.42,1964.86,350.07,321.22,31.86,0000 0000 0000 0000 000000
2013-12-08 00:07:46,0.32,8.11,0.00,26.70,27.63,30.61,5.80,31.54,1020.30,2036.21,1393.59,1795.17,1964.62,348.52,319.77,31.87,0000 0000 0000 0000 000000
2013-12-08 00:08:46,0.44,8.11,0.00,26.70,27.62,30.62,6.06,31.58,1020.24,2036.18,1393.27,1795.08,1964.28,349.85,320.98,31.87,0000 0000 0000 0000 000000
2013-12-08 00:09:46,0.34,8.12,0.00,26.71,27.62,30.60,5.92,31.63,1020.24,2036.19,1393.11,1795.02,1964.12,351.03,322.04,31.88,0000 0000 0000 0000 000000
2013-12-08 00:10:47,0.18,8.12,0.00,26.72,27.62,30.61,5.86,31.42,1020.28,2036.20,1393.03,1795.00,1964.04,349.21,320.37,31.88,0000 0000 0000 0000 000000
2013-12-08 00:11:47,0.07,8.12,0.00,26.73,27.62,30.61,5.85,31.42,1020.31,2036.25,1393.01,1794.99,1964.01,348.85,320.05,31.89,0000 0000 0000 0000 000000
2013-12-08 00:12:47,0.12,8.12,0.00,26.74,27.62,30.62,5.88,31.46,1020.27,2036.37,1392.97,1794.99,1964.00,350.33,321.38,31.89,0000 0000 0000 0000 000000
2013-12-08 00:13:47,0.18,8.12,0.00,26.71,27.62,30.63,5.97,31.63,1020.19,2036.43,1392.85,1794.82,1963.99,351.03,322.03,31.90,0000 0000 0000 0000 000000
2013-12-08 00:14:48,0.22,8.12,0.00,26.68,27.62,30.63,5.96,31.88,1020.18,2036.42,1392.45,1794.42,1963.84,350.49,321.56,31.91,0000 0000 0000 0000 000000
2013-12-08 00:15:48,0.51,8.13,0.00,26.65,27.62,30.60,5.92,31.50,1020.21,2036.64,1392.17,1794.18,1963.51,351.00,322.07,31.91,0000 0000 0000 0000 000000
2013-12-08 00:16:48,0.58,8.13,0.00,26.64,27.62,30.61,5.83,31.33,1020.24,2036.69,1392.06,1794.07,1963.20,349.77,320.96,31.92,0000 0000 0000 0000 000000
2013-12-08 00:17:48,0.31,8.13,0.00,26.64,27.62,30.60,5.92,31.83,1020.26,2036.71,1392.02,1794.02,1963.07,350.17,321.30,31.92,0000 0000 0000 0000 000000
2013-12-08 00:18:49,0.05,8.13,0.00,26.64,27.62,30.59,5.92,31.63,1020.36,2036.68,1391.99,1794.00,1963.02,350.86,322.00,31.93,0000 0000 0000 0000 000000
2013-12-08 00:19:49,0.05,8.13,0.00,26.63,27.62,30.58,5.83,31.54,1020.36,2036.76,1391.73,1793.94,1962.98,349.88,320.88,31.94,0000 0000 0000 0000 000000
2013-12-08 00:20:49,0.32,8.13,0.00,26.63,27.62,30.63,5.85,31.71,1020.31,2036.77,1391.32,1793.56,1962.81,350.64,321.79,31.94,0000 0000 0000 0000 000000
2013-12-08 00:21:49,0.52,8.14,0.00,26.63,27.62,30.61,5.67,31.17,1020.31,2036.86,1391.11,1793.26,1962.42,349.66,320.95,31.95,0000 0000 0000 0000 000000
2013-12-08 00:22:50,0.44,8.14,0.00,26.67,27.62,30.67,5.80,31.50,1020.32,2036.85,1391.03,1793.09,1962.16,349.01,320.25,31.95,0000 0000 0000 0000 000000
2013-12-08 00:23:50,0.19,8.14,0.00,26.71,27.62,30.63,5.96,32.13,1020.32,2036.88,1390.87,1793.03,1962.05,349.80,321.55,31.96,0000 0000 0000 0000 000000
2013-12-08 00:24:50,0.27,8.14,0.00,26.67,27.62,30.61,5.77,31.54,1020.28,2036.90,1390.39,1792.97,1961.98,350.01,321.50,31.97,0000 0000 0000 0000 000000
2013-12-08 00:25:51,0.28,8.14,0.00,26.64,27.62,30.61,5.89,31.33,1020.16,2036.92,1390.17,1792.81,1961.84,349.55,320.74,31.97,0000 0000 0000 0000 000000
2013-12-08 00:26:51,0.36,8.15,0.00,26.64,27.62,30.59,5.83,31.33,1020.16,2036.92,1390.06,1792.43,1961.46,351.21,322.26,31.98,0000 0000 0000 0000 000000
2013-12-08 00:27:51,0.36,8.15,0.00,26.65,27.62,30.60,5.94,31.50,1020.08,2036.95,1389.99,1792.17,1961.20,350.04,321.14,31.98,0000 0000 0000 0000 000000
2013-12-08 00:28:51,0.25,8.15,0.00,26.62,27.62,30.58,5.93,31.79,1020.09,2036.92,1389.74,1792.06,1961.07,351.07,321.94,31.99,0000 0000 0000 0000 000000
2013-12-08 00:29:52,0.26,8.15,0.00,26.61,27.62,30.62,5.98,31.67,1020.06,2036.94,1389.30,1792.02,1961.02,350.28,321.42,31.99,0000 0000 0000 0000 000000
2013-12-08 00:30:52,0.26,8.15,0.00,26.61,27.62,30.66,5.88,31.63,1020.06,2036.97,1389.11,1792.00,1960.88,349.50,320.87,32.00,0000 0000 0000 0000 000000
2013-12-08 00:31:52,0.22,8.15,0.00,26.64,27.62,30.64,5.96,31.71,1020.09,2036.97,1389.03,1791.80,1960.40,349.41,320.36,32.01,0000 0000 0000 0000 000000
2013-12-08 00:32:53,0.31,8.16,0.00,26.63,27.62,30.55,5.92,31.25,1020.09,2036.97,1388.86,1791.39,1960.15,350.69,321.76,32.01,0000 0000 0000 0000 000000
2013-12-08 00:33:53,0.40,8.16,0.00,26.67,27.62,30.58,5.79,31.46,1020.05,2036.95,1388.43,1791.15,1960.05,350.53,321.58,32.02,0000 0000 0000 0000 000000
2013-12-08 00:34:53,0.37,8.16,0.00,26.69,27.62,30.62,5.83,31.46,1020.05,2036.97,1388.16,1791.05,1960.02,350.72,321.41,32.02,0000 0000 0000 0000 000000
2013-12-08 00:35:53,0.23,8.16,0.00,26.67,27.61,30.63,5.88,31.50,1020.05,2036.96,1388.06,1791.01,1960.00,349.34,320.25,32.03,0000 0000 0000 0000 000000
2013-12-08 00:36:54,0.06,8.16,0.00,26.68,27.61,30.61,5.77,31.50,1020.06,2036.93,1388.01,1790.98,1959.74,349.02,320.64,32.04,0000 0000 0000 0000 000000
2013-12-08 00:37:54,0.13,8.16,0.00,26.65,27.61,30.60,5.98,31.58,1020.05,2036.94,1387.96,1790.89,1959.36,350.38,321.45,32.04,0000 0000 0000 0000 000000
2013-12-08 00:38:54,0.20,8.16,0.00,26.68,27.61,30.61,5.95,31.29,1020.05,2036.93,1387.76,1790.54,1959.15,350.25,320.68,32.05,0000 0000 0000 0000 000000
2013-12-08 00:39:54,0.39,8.17,0.00,26.69,27.61,30.59,5.76,31.67,1020.04,2036.94,1387.33,1790.25,1959.06,349.66,320.85,32.05,0000 0000 0000 0000 000000
2013-12-08 00:40:55,0.38,8.17,0.00,26.68,27.61,30.60,5.84,31.46,1020.05,2036.94,1387.13,1790.10,1959.02,350.33,321.74,32.06,0000 0000 0000 0000 000000
2013-12-08 00:41:55,0.22,8.17,0.00,26.67,27.60,30.61,5.94,31.63,1020.04,2036.94,1387.05,1790.04,1959.00,349.28,320.42,32.07,0000 0000 0000 0000 000000
2013-12-08 00:42:55,0.06,8.17,0.00,26.64,27.60,30.61,5.92,32.04,1020.05,2036.88,1387.02,1790.01,1958.99,349.85,320.98,32.07,0000 0000 0000 0000 000000
2013-12-08 00:43:55,0.03,8.17,0.00,26.65,27.60,30.58,5.79,31.67,1020.04,2036.93,1387.00,1790.00,1958.92,350.52,321.14,32.08,0000 0000 0000 0000 000000
2013-12-08 00:44:56,0.05,8.17,0.00,26.62,27.60,30.60,5.99,31.71,1020.04,2036.90,1386.96,1789.97,1958.63,350.70,322.03,32.08,0000 0000 0000 0000 000000
2013-12-08 00:45:56,0.12,8.17,0.00,26.64,27.60,30.61,5.81,31.54,1020.04,2036.90,1386.65,1789.88,1958.24,349.88,321.00,32.09,0000 0000 0000 0000 000000
2013-12-08 00:46:56,0.31,8.17,0.00,26.64,27.60,30.61,5.81,31.63,1020.04,2036.91,1386.32,1789.68,1958.09,349.06,320.25,32.09,0000 0000 0000 0000 000000
2013-12-08 00:47:56,0.40,8.18,0.00,26.66,27.60,30.59,6.04,31.63,1020.04,2036.93,1386.12,1789.30,1958.03,350.93,322.14,32.10,0000 0000 0000 0000 000000
2013-12-08 00:48:57,0.32,8.18,0.00,26.69,27.60,30.58,5.79,31.08,1020.04,2036.94,1386.04,1789.10,1958.00,350.87,321.63,32.11,0000 0000 0000 0000 000000
2013-12-08 00:49:57,0.17,8.18,0.00,26.70,27.60,30.60,5.91,31.63,1020.04,2036.96,1385.99,1789.04,1957.96,350.26,321.28,32.11,0000 0000 0000 0000 000000
2013-12-08 00:50:57,0.10,8.18,0.00,26.65,27.60,30.59,5.93,31.67,1020.04,2036.96,1385.93,1789.01,1957.93,350.23,321.31,32.12,0000 0000 0000 0000 000000
2013-12-08 00:51:57,0.08,8.18,0.00,26.63,27.60,30.61,5.88,31.63,1020.04,2036.97,1385.66,1788.99,1957.62,350.43,321.57,32.12,0000 0000 0000 0000 000000
2013-12-08 00:52:58,0.27,8.18,0.00,26.66,27.60,30.59,5.88,31.58,1020.04,2036.98,1385.29,1788.99,1957.31,350.39,321.45,32.13,0000 0000 0000 0000 000000
2013-12-08 00:53:58,0.31,8.18,0.00,26.73,27.60,30.58,5.83,31.83,1020.04,2036.98,1385.10,1788.78,1957.12,348.99,320.24,32.14,0000 0000 0000 0000 000000
2013-12-08 00:54:58,0.31,8.18,0.00,26.70,27.60,30.63,5.93,31.75,1020.04,2036.99,1385.04,1788.39,1957.04,349.58,320.65,32.14,0000 0000 0000 0000 000000
2013-12-08 00:55:58,0.25,8.19,0.00,26.67,27.60,30.57,5.90,31.71,1020.04,2036.98,1385.00,1788.19,1957.00,349.66,320.76,32.15,0000 0000 0000 0000 000000
2013-12-08 00:56:59,0.14,8.19,0.00,26.69,27.60,30.54,5.91,31.46,1020.04,2036.98,1384.97,1788.06,1956.99,349.47,320.68,32.15,0000 0000 0000 0000 000000
2013-12-08 00:57:59,0.08,8.19,0.00,26.67,27.60,30.56,5.78,31.54,1020.04,2036.97,1384.66,1788.02,1956.89,348.69,319.70,32.16,0000 0000 0000 0000 000000
2013-12-08 00:58:59,0.23,8.19,0.00,26.63,27.60,30.58,5.85,31.88,1020.04,2036.97,1384.29,1788.00,1956.54,349.89,320.90,32.16,0000 0000 0000 0000 000000
2013-12-08 00:59:59,0.31,8.19,0.00,26.64,27.60,30.58,5.91,31.42,1020.04,2036.96,1384.12,1787.97,1956.25,350.99,322.06,32.17,0000 0000 0000 0000 000000
2013-12-08 01:01:00,0.18,8.19,0.00,26.59,27.60,30.54,5.92,31.42,1020.04,2036.96,1384.04,1787.87,1956.09,350.35,321.48,32.18,0000 0000 0000 0000 000000
2013-12-08 01:02:00,0.16,8.19,0.00,26.63,27.60,30.56,5.91,31.58,1020.04,2036.96,1384.01,1787.73,1956.03,349.42,320.66,32.18,0000 0000 0000 0000 000000
2013-12-08 01:03:00,0.16,8.19,0.00,26.64,27.60,30.59,5.87,31.75,1020.04,2036.98,1383.99,1787.34,1956.00,348.74,319.97,32.19,0000 0000 0000 0000 000000
2013-12-08 01:04:00,0.22,8.19,0.00,26.67,27.60,30.59,5.96,31.79,1020.04,2036.99,1383.81,1787.13,1955.98,349.93,320.99,32.19,0000 0000 0000 0000 000000
2013-12-08 01:05:00,0.26,8.20,0.00,26.72,27.60,30.57,5.93,31.46,1020.04,2036.99,1383.56,1787.09,1955.97,349.98,321.01,32.20,0000 0000 0000 0000 000000
2013-12-08 01:06:01,0.13,8.20,0.00,26.72,27.60,30.56,5.64,31.50,1020.04,2036.98,1383.30,1787.06,1955.96,348.52,319.95,32.21,0000 0000 0000 0000 000000
2013-12-08 01:07:01,0.17,8.20,0.00,26.74,27.60,30.60,5.89,31.58,1020.04,2036.99,1383.12,1787.03,1955.93,350.19,321.18,32.21,0000 0000 0000 0000 000000
2013-12-08 01:08:01,0.14,8.20,0.00,26.75,27.60,30.59,5.87,31.63,1020.04,2036.99,1383.04,1787.01,1955.52,350.27,321.24,32.22,0000 0000 0000 0000 000000
2013-12-08 01:09:01,0.19,8.20,0.00,26.72,27.60,30.58,5.82,31.29,1020.04,2036.98,1383.00,1787.00,1955.20,349.94,320.73,32.22,0000 0000 0000 0000 000000
2013-12-08 01:10:01,0.10,8.20,0.00,26.71,27.60,30.61,5.83,31.38,1020.04,2036.94,1382.97,1787.00,1955.07,350.55,321.34,32.23,0000 0000 0000 0000 000000
2013-12-08 01:11:02,0.02,8.20,0.00,26.70,27.59,30.60,5.88,31.63,1020.04,2036.93,1382.86,1786.94,1955.02,349.07,320.43,32.24,0000 0000 0000 0000 000000
2013-12-08 01:12:02,0.11,8.20,0.00,26.64,27.59,30.55,5.91,31.33,1020.04,2036.96,1382.63,1786.80,1955.00,349.86,320.98,32.24,0000 0000 0000 0000 000000
2013-12-08 01:13:02,0.25,8.20,0.00,26.64,27.59,30.57,5.96,31.83,1020.04,2036.98,1382.29,1786.55,1955.00,350.21,321.17,32.25,0000 0000 0000 0000 000000
2013-12-08 01:14:02,0.34,8.21,0.00,26.70,27.59,30.57,6.01,31.54,1020.04,2036.98,1382.10,1786.22,1954.95,351.29,322.17,32.25,0000 0000 0000 0000 000000
2013-12-08 01:15:03,0.29,8.21,0.00,26.71,27.59,30.58,5.88,31.67,1020.04,2036.98,1382.03,1786.08,1954.74,349.23,320.65,32.26,0000 0000 0000 0000 000000
2013-12-08 01:16:03,0.18,8.21,0.00,26.72,27.59,30.63,5.90,31.38,1020.04,2036.99,1382.01,1786.02,1954.36,349.72,320.71,32.26,0000 0000 0000 0000 000000
2013-12-08 01:17:03,0.16,8.21,0.00,26.66,27.59,30.57,5.86,31.42,1020.04,2036.98,1381.95,1786.01,1954.14,350.27,321.30,32.27,0000 0000 0000 0000 000000
2013-12-08 01:18:03,0.09,8.21,0.00,26.64,27.59,30.57,5.84,31.42,1020.04,2036.98,1381.86,1785.99,1954.07,349.72,320.55,32.28,0000 0000 0000 0000 000000
2013-12-08 01:19:03,0.07,8.21,0.00,26.65,27.59,30.56,5.93,31.38,1020.04,2036.99,1381.63,1785.98,1954.03,349.45,320.60,32.28,0000 0000 0000 0000 000000
2013-12-08 01:20:03,0.19,8.21,0.00,26.65,27.59,30.61,5.83,31.67,1020.04,2036.99,1381.31,1785.93,1954.00,350.23,321.32,32.29,0000 0000 0000 0000 000000
2013-12-08 01:21:04,0.23,8.21,0.00,26.63,27.59,30.59,5.86,31.71,1020.04,2036.98,1381.12,1785.70,1953.98,349.28,320.26,32.29,0000 0000 0000 0000 000000
2013-12-08 01:22:04,0.20,8.21,0.00,26.65,27.58,30.57,5.90,31.63,1020.04,2036.98,1381.04,1785.40,1953.94,350.06,321.16,32.30,0000 0000 0000 0000 000000
2013-12-08 01:23:04,0.23,8.22,0.00,26.61,27.58,30.56,5.97,31.54,1020.04,2036.99,1381.01,1785.18,1953.79,350.70,321.53,32.31,0000 0000 0000 0000 000000
2013-12-08 01:24:04,0.20,8.22,0.00,26.60,27.58,30.57,5.98,31.63,1020.04,2036.99,1380.99,1785.07,1953.48,349.34,320.38,32.31,0000 0000 0000 0000 000000
2013-12-08 01:25:05,0.17,8.22,0.00,26.64,27.58,30.53,5.83,31.54,1020.04,2036.99,1380.95,1785.02,1953.20,349.05,320.21,32.32,0000 0000 0000 0000 000000
2013-12-08 01:26:05,0.12,8.22,0.00,26.63,27.58,30.54,5.88,31.71,1020.04,2036.99,1380.74,1785.00,1953.08,349.37,320.54,32.32,0000 0000 0000 0000 000000
2013-12-08 01:27:05,0.16,8.22,0.00,26.65,27.57,30.54,5.83,31.71,1020.04,2036.97,1380.38,1784.98,1953.03,349.53,320.32,32.33,0000 0000 0000 0000 000000
2013-12-08 01:28:05,0.24,8.22,0.00,26.69,27.57,30.55,6.06,31.88,1020.04,2036.97,1380.16,1784.97,1953.01,350.82,321.81,32.33,0000 0000 0000 0000 000000
2013-12-08 01:29:06,0.15,8.22,0.00,26.72,27.57,30.56,5.95,31.46,1020.04,2036.99,1380.07,1784.93,1952.99,350.57,321.55,32.34,0000 0000 0000 0000 000000
2013-12-08 01:30:06,0.09,8.22,0.00,26.71,27.57,30.57,5.78,31.50,1020.04,2036.99,1380.02,1784.88,1952.97,349.18,320.28,32.35,0000 0000 0000 0000 000000
2013-12-08 01:31:06,0.05,8.22,0.00,26.68,27.57,30.53,5.97,31.71,1020.02,2036.99,1380.00,1784.54,1952.95,349.40,320.68,32.35,0000 0000 0000 0000 000000
2013-12-08 01:32:06,0.21,8.22,0.00,26.66,27.57,30.54,5.74,31.67,1020.01,2036.99,1379.98,1784.24,1952.85,349.19,320.14,32.36,0000 0000 0000 0000 000000
2013-12-08 01:33:07,0.21,8.22,0.00,26.67,27.57,30.59,5.83,31.75,1020.03,2036.99,1379.90,1784.09,1952.46,350.86,321.86,32.36,0000 0000 0000 0000 000000
2013-12-08 01:34:07,0.24,8.23,0.00,26.69,27.57,30.58,5.82,31.75,1020.00,2036.99,1379.72,1784.03,1952.24,350.35,321.36,32.37,0000 0000 0000 0000 000000
2013-12-08 01:35:07,0.20,8.23,0.00,26.70,27.57,30.55,5.84,31.63,1019.99,2036.99,1379.39,1784.01,1952.11,350.08,321.10,32.38,0000 0000 0000 0000 000000
2013-12-08 01:36:08,0.25,8.23,0.00,26.72,27.57,30.52,5.97,31.79,1020.00,2036.99,1379.16,1784.00,1952.04,349.88,320.91,32.38,0000 0000 0000 0000 000000
2013-12-08 01:37:08,0.16,8.23,0.00,26.70,27.57,30.52,5.86,31.50,1019.99,2036.99,1379.06,1783.99,1952.01,349.66,320.77,32.39,0000 0000 0000 0000 000000
2013-12-08 01:38:08,0.07,8.23,0.00,26.66,27.57,30.53,5.83,31.54,1019.97,2036.99,1379.02,1783.98,1952.00,349.10,320.08,32.39,0000 0000 0000 0000 000000
2013-12-08 01:39:08,0.02,8.23,0.00,26.67,27.57,30.53,5.98,31.92,1019.92,2036.99,1379.00,1783.98,1952.00,349.85,320.91,32.40,0000 0000 0000 0000 000000
2013-12-08 01:40:09,0.00,8.23,0.00,26.63,27.57,30.54,6.04,31.67,1019.91,2036.98,1379.00,1783.92,1951.99,350.63,321.71,32.40,0000 0000 0000 0000 000000
2013-12-08 01:41:09,0.01,8.23,0.00,26.65,27.57,30.53,5.88,31.75,1019.93,2036.98,1378.98,1783.70,1951.95,349.25,319.95,32.41,0000 0000 0000 0000 000000
2013-12-08 01:42:09,0.16,8.23,0.00,26.63,27.57,30.53,5.93,31.54,1019.95,2036.99,1378.92,1783.48,1951.88,351.25,322.24,32.42,0000 0000 0000 0000 000000
2013-12-08 01:43:09,0.17,8.23,0.00,26.67,27.57,30.54,5.93,32.04,1019.97,2036.99,1378.61,1783.23,1951.53,350.69,321.94,32.42,0000 0000 0000 0000 000000
2013-12-08 01:44:10,0.49,8.24,0.00,26.69,27.57,30.54,5.73,31.79,1019.97,2036.99,1378.27,1783.10,1951.24,348.82,319.81,32.43,0000 0000 0000 0000 000000
2013-12-08 01:45:10,0.32,8.24,0.00,26.71,27.57,30.54,5.96,32.00,1019.98,2036.99,1378.12,1783.04,1951.11,351.21,321.74,32.43,0000 0000 0000 0000 000000
2013-12-08 01:46:10,0.14,8.24,0.00,26.65,27.57,30.55,5.99,31.50,1019.96,2036.98,1378.04,1783.01,1951.05,351.45,322.10,32.44,0000 0000 0000 0000 000000
2013-12-08 01:47:10,0.05,8.24,0.00,26.66,27.57,30.54,5.90,31.50,1019.95,2036.99,1378.01,1783.00,1951.02,350.96,321.94,32.45,0000 0000 0000 0000 000000
2013-12-08 01:48:10,0.03,8.24,0.00,26.64,27.57,30.53,5.98,31.71,1019.93,2036.99,1378.00,1782.99,1951.00,349.24,320.14,32.45,0000 0000 0000 0000 000000
2013-12-08 01:49:10,0.02,8.24,0.00,26.64,27.57,30.52,5.87,31.50,1019.97,2036.99,1378.00,1782.98,1950.99,350.25,321.30,32.46,0000 0000 0000 0000 000000
2013-12-08 01:50:11,0.00,8.24,0.00,26.63,27.57,30.49,5.86,31.33,1019.98,2036.99,1377.98,1782.96,1950.98,350.65,321.71,32.46,0000 0000 0000 0000 000000
2013-12-08 01:51:11,0.03,8.24,0.00,26.60,27.57,30.52,5.72,31.33,1020.00,2036.99,1377.95,1782.91,1950.95,349.31,320.51,32.47,0000 0000 0000 0000 000000
2013-12-08 01:52:11,0.06,8.24,0.00,26.61,27.57,30.51,5.76,31.67,1019.99,2036.99,1377.89,1782.83,1950.93,349.22,320.41,32.48,0000 0000 0000 0000 000000
2013-12-08 01:53:11,0.07,8.24,0.00,26.65,27.57,30.53,5.94,31.33,1019.96,2036.99,1377.64,1782.58,1950.72,350.43,321.48,32.48,0000 0000 0000 0000 000000
2013-12-08 01:54:11,0.39,8.24,0.00,26.63,27.57,30.51,5.92,31.63,1019.95,2036.99,1377.34,1782.28,1950.45,350.38,321.20,32.49,0000 0000 0000 0000 000000
2013-12-08 01:55:11,0.45,8.24,0.00,26.62,27.57,30.50,5.96,31.42,1019.95,2036.99,1377.15,1782.12,1950.21,350.26,321.34,32.49,0000 0000 0000 0000 000000
2013-12-08 01:56:11,0.25,8.25,0.00,26.59,27.57,30.51,5.93,31.63,1019.92,2036.99,1377.06,1782.05,1950.10,350.86,321.91,32.50,0000 0000 0000 0000 000000
2013-12-08 01:57:12,0.10,8.25,0.00,26.64,27.57,30.51,5.82,31.67,1019.83,2036.99,1377.02,1782.01,1950.04,350.00,321.36,32.50,0000 0000 0000 0000 000000
2013-12-08 01:58:12,0.05,8.25,0.00,26.67,27.57,30.50,5.95,31.46,1019.77,2036.99,1377.00,1782.00,1950.01,350.45,321.47,32.51,0000 0000 0000 0000 000000
2013-12-08 01:59:12,0.02,8.25,0.00,26.70,27.57,30.52,5.94,31.50,1019.80,2036.99,1377.00,1782.00,1950.00,349.97,321.17,32.52,0000 0000 0000 0000 000000
2013-12-08 02:00:12,0.00,8.25,0.00,26.72,27.56,30.54,5.97,31.54,1019.78,2036.99,1377.00,1782.00,1950.00,349.45,320.44,32.52,0000 0000 0000 0000 000000
2013-12-08 02:01:13,0.00,8.25,0.00,26.71,27.56,30.49,5.99,31.63,1019.70,2036.99,1376.98,1782.00,1949.99,349.97,320.72,32.53,0000 0000 0000 0000 000000
2013-12-08 02:02:13,0.00,8.25,0.00,26.72,27.56,30.49,5.92,31.58,1019.66,2036.99,1376.91,1781.99,1949.98,349.23,320.57,32.53,0000 0000 0000 0000 000000
2013-12-08 02:03:13,0.05,8.25,0.00,26.66,27.55,30.50,5.82,31.54,1019.66,2036.99,1376.79,1781.98,1949.97,349.33,320.35,32.54,0000 0000 0000 0000 000000
2013-12-08 02:04:14,0.07,8.25,0.00,26.64,27.55,30.47,5.78,31.63,1019.69,2036.99,1376.59,1781.99,1949.96,350.14,321.13,32.55,0000 0000 0000 0000 000000
2013-12-08 02:05:14,0.13,8.25,0.00,26.66,27.55,30.47,5.88,31.54,1019.67,2036.99,1376.31,1781.95,1949.91,350.25,321.60,32.55,0000 0000 0000 0000 000000
2013-12-08 02:06:14,0.20,8.25,0.00,26.67,27.55,30.47,5.82,31.71,1019.67,2036.99,1376.17,1781.88,1949.76,349.62,321.00,32.56,0000 0000 0000 0000 000000
2013-12-08 02:07:14,0.13,8.25,0.00,26.65,27.55,30.51,5.92,31.67,1019.69,2036.99,1376.07,1781.74,1949.47,351.30,322.00,32.56,0000 0000 0000 0000 000000
2013-12-08 02:08:15,0.23,8.25,0.00,26.67,27.55,30.47,5.87,31.46,1019.70,2036.99,1376.02,1781.49,1949.22,349.20,319.97,32.57,0000 0000 0000 0000 000000
2013-12-08 02:09:15,0.27,8.25,0.00,26.64,27.55,30.48,5.91,31.33,1019.68,2036.99,1376.00,1781.27,1949.10,349.26,320.33,32.57,0000 0000 0000 0000 000000
2013-12-08 02:10:15,0.16,8.25,0.00,26.66,27.55,30.48,5.82,31.71,1019.69,2036.99,1376.00,1781.11,1949.05,349.01,319.92,32.58,0000 0000 0000 0000 000000
2013-12-08 02:11:15,0.10,8.26,0.00,26.65,27.55,30.50,5.77,31.42,1019.64,2036.99,1376.00,1781.05,1949.03,349.39,320.85,32.59,0000 0000 0000 0000 000000
2013-12-08 02:12:15,0.04,8.26,0.00,26.66,27.55,30.54,5.83,31.38,1019.66,2036.99,1376.00,1781.02,1949.01,349.81,320.43,32.59,0000 0000 0000 0000 000000
2013-12-08 02:13:16,0.01,8.26,0.00,26.66,27.55,30.50,5.96,31.71,1019.65,2036.99,1376.00,1781.01,1949.00,350.56,321.30,32.60,0000 0000 0000 0000 000000
2013-12-08 02:14:16,0.01,8.26,0.00,26.69,27.55,30.49,5.92,31.58,1019.63,2036.99,1376.00,1781.00,1949.00,350.15,321.07,32.60,0000 0000 0000 0000 000000
2013-12-08 02:15:16,0.00,8.26,0.00,26.67,27.55,30.47,5.92,31.58,1019.70,2036.99,1375.98,1781.00,1949.00,350.11,321.07,32.61,0000 0000 0000 0000 000000
2013-12-08 02:16:16,0.01,8.26,0.00,26.68,27.55,30.47,5.81,31.75,1019.71,2036.99,1375.98,1781.00,1949.00,349.34,320.62,32.62,0000 0000 0000 0000 000000
2013-12-08 02:17:16,0.00,8.26,0.00,26.69,27.55,30.48,5.98,31.63,1019.66,2036.99,1375.90,1781.00,1949.00,350.09,321.02,32.62,0000 0000 0000 0000 000000
2013-12-08 02:18:17,0.04,8.26,0.00,26.65,27.55,30.47,5.95,31.71,1019.60,2037.00,1375.84,1781.00,1948.99,350.32,321.26,32.63,0000 0000 0000 0000 000000
2013-12-08 02:19:17,0.01,8.26,0.00,26.56,27.55,30.45,5.89,31.67,1019.61,2037.00,1375.57,1781.00,1948.98,350.09,321.14,32.63,0000 0000 0000 0000 000000
2013-12-08 02:20:17,0.18,8.26,0.00,26.52,27.55,30.46,5.75,31.46,1019.58,2037.00,1375.32,1781.00,1948.94,349.47,320.61,32.64,0000 0000 0000 0000 000000
2013-12-08 02:21:18,0.16,8.26,0.00,26.50,27.55,30.46,5.85,31.42,1019.62,2037.01,1375.16,1781.00,1948.88,350.75,321.82,32.64,0000 0000 0000 0000 000000
2013-12-08 02:22:18,0.11,8.26,0.00,26.52,27.55,30.47,5.90,31.46,1019.59,2037.00,1375.07,1780.99,1948.79,350.81,321.84,32.65,0000 0000 0000 0000 000000
2013-12-08 02:23:18,0.07,8.26,0.00,26.58,27.54,30.46,5.92,31.83,1019.56,2037.00,1375.03,1780.99,1948.69,349.72,320.46,32.66,0000 0000 0000 0000 000000
2013-12-08 02:24:18,0.06,8.26,0.00,26.62,27.54,30.46,5.96,31.83,1019.56,2037.01,1375.01,1780.94,1948.51,349.86,320.85,32.66,0000 0000 0000 0000 000000
2013-12-08 02:25:19,0.12,8.26,0.00,26.66,27.54,30.46,5.84,31.96,1019.58,2037.01,1375.00,1780.70,1948.24,349.71,320.47,32.67,0000 0000 0000 0000 000000
2013-12-08 02:26:19,0.22,8.26,0.00,26.68,27.54,30.46,5.89,31.71,1019.59,2037.00,1375.00,1780.35,1948.10,350.12,321.16,32.67,0000 0000 0000 0000 000000
2013-12-08 02:27:19,0.24,8.26,0.00,26.69,27.53,30.52,5.83,31.75,1019.57,2037.00,1374.99,1780.18,1948.05,350.34,321.30,32.68,0000 0000 0000 0000 000000
2013-12-08 02:28:19,0.10,8.26,0.00,26.68,27.53,30.50,5.99,31.75,1019.59,2037.00,1374.95,1780.11,1948.02,349.86,320.80,32.69,0000 0000 0000 0000 000000
2013-12-08 02:29:19,0.06,8.26,0.00,26.66,27.52,30.47,5.93,31.92,1019.59,2037.00,1374.93,1780.07,1948.00,349.55,320.46,32.69,0000 0000 0000 0000 000000
2013-12-08 02:30:19,0.03,8.26,0.00,26.63,27.52,30.44,5.89,31.71,1019.59,2037.01,1374.81,1780.05,1948.00,350.17,321.13,32.70,0000 0000 0000 0000 000000
2013-12-08 02:31:20,0.10,8.27,0.00,26.59,27.52,30.44,5.92,31.88,1019.57,2037.00,1374.62,1780.02,1948.00,350.30,321.07,32.70,0000 0000 0000 0000 000000
2013-12-08 02:32:20,0.11,8.27,0.00,26.61,27.52,30.47,5.96,31.46,1019.57,2037.01,1374.37,1780.00,1948.00,350.42,321.38,32.71,0000 0000 0000 0000 000000
2013-12-08 02:33:21,0.16,8.27,0.00,26.61,27.52,30.43,5.86,31.67,1019.57,2037.00,1374.20,1780.00,1947.99,349.94,321.37,32.71,0000 0000 0000 0000 000000
2013-12-08 02:34:21,0.09,8.27,0.00,26.63,27.52,30.43,6.05,31.79,1019.55,2037.01,1374.08,1780.00,1947.98,350.99,321.88,32.72,0000 0000 0000 0000 000000
2013-12-08 02:35:21,0.07,8.27,0.00,26.63,27.52,30.43,5.88,31.75,1019.55,2037.01,1374.03,1780.00,1947.97,349.82,320.81,32.73,0000 0000 0000 0000 000000
2013-12-08 02:36:21,0.04,8.27,0.00,26.68,27.52,30.43,5.93,32.13,1019.57,2037.02,1374.01,1780.00,1947.98,349.51,319.91,32.73,0000 0000 0000 0000 000000